Weather History for Columbia / Mount Pleasant, TN

Change the Weather History Date:

Wednesday, February 26, 2014

  Actual Average (KBNA) Record (KBNA)
Temperature  
Mean Temperature 26 °F 45 °F  
Max Temperature 33 °F 55 °F 79 °F (1917)
Min Temperature 17 °F 34 °F 8 °F (1967)
Degree Days  
Heating Degree Days 39 20  
Month to date heating degree days 613  
Since 1 July heating degree days 2898  
Cooling Degree Days 0 0  
Month to date cooling degree days 0  
Year to date cooling degree days 0  
Moisture  
Dew Point 13 °F    
Average Humidity 54    
Maximum Humidity 74    
Minimum Humidity 32    
Precipitation  
Precipitation 0.00 in 0.14 in 2.86 in (1962)
Month to date precipitation 3.66  
Year to date precipitation 7.41  
Snow  
Snow 0.00 in 0.10 in 2.00 in (1982)
Month to date snowfall 2.2  
Since 1 July snowfall 5.3  
Snow Depth -    
Sea Level Pressure  
Sea Level Pressure 30.07 in    
Wind  
Wind Speed 9 mph (North)    
Max Wind Speed 16 mph    
Max Gust Speed -    
Visibility 10 miles    
Events      
T = Trace of Precipitation, MM = Missing Value Source: NWS Daily Summary

Daily Weather History Graph

Daily Weather History Graph

Search for Another Location

Airport:

Trip Planner

Search our weather history database for the weather conditions in past years. The results will help you decide how hot, cold, wet, or windy it might be!

Date:

Astronomy

Feb. 26, 2014 Rise Set
Actual Time 6:22 AM CST 5:41 PM CST
Civil Twilight 5:56 AM CST 6:06 PM CST
Nautical Twilight 5:27 AM CST 6:36 PM CST
Astronomical Twilight 4:57 AM CST 7:06 PM CST
Moon 4:03 AM CST (2/26) 2:59 PM CST (2/26)
Length of Visible Light 12h 10m
Length of Day
11h 18m
Waning Crescent, 10% of the Moon is Illuminated
Feb 26
Waning Crescent
Mar 1
New
Mar 8
First Quarter
Mar 16
Full
Mar 23
Last Quarter

Hourly Weather History & Observations

Time (CST) Temp. Windchill Dew Point Humidity Pressure Visibility Wind Dir Wind Speed Gust Speed Precip Events Conditions
12:35 AM 33.8 °F 26.4 °F 21.2 °F 60% 30.08 in 10.0 mi North 9.2 mph - N/A   Overcast
12:55 AM 32.0 °F 24.2 °F 21.2 °F 64% 30.07 in 10.0 mi North 9.2 mph - N/A   Overcast
1:15 AM 32.0 °F 24.2 °F 21.2 °F 64% 30.08 in 10.0 mi North 9.2 mph - N/A   Overcast
1:35 AM 30.2 °F 21.3 °F 21.2 °F 69% 30.08 in 10.0 mi North 10.4 mph - N/A   Overcast
1:55 AM 30.2 °F 20.2 °F 21.2 °F 69% 30.07 in 10.0 mi North 12.7 mph - N/A   Overcast
2:15 AM 30.2 °F 21.3 °F 21.2 °F 69% 30.08 in 10.0 mi North 10.4 mph - N/A   Overcast
2:35 AM 30.2 °F 21.3 °F 21.2 °F 69% 30.09 in 10.0 mi North 10.4 mph - N/A   Overcast
2:55 AM 30.2 °F 20.8 °F 21.2 °F 69% 30.09 in 10.0 mi North 11.5 mph - N/A   Overcast
3:15 AM 28.4 °F 17.5 °F 19.4 °F 69% 30.10 in 10.0 mi North 13.8 mph - N/A   Overcast
3:35 AM 28.4 °F 18.0 °F 19.4 °F 69% 30.10 in 10.0 mi North 12.7 mph - N/A   Overcast
3:55 AM 28.4 °F 17.0 °F 19.4 °F 69% 30.11 in 10.0 mi North 15.0 mph - N/A   Overcast
4:15 AM 28.4 °F 18.5 °F 19.4 °F 69% 30.12 in 10.0 mi North 11.5 mph - N/A   Overcast
4:35 AM 28.4 °F 16.6 °F 19.4 °F 69% 30.13 in 10.0 mi North 16.1 mph - N/A   Overcast
4:55 AM 28.4 °F 18.0 °F 19.4 °F 69% 30.13 in 10.0 mi North 12.7 mph - N/A   Overcast
5:15 AM 28.4 °F 19.1 °F 19.4 °F 69% 30.12 in 10.0 mi North 10.4 mph - N/A   Overcast
5:35 AM 26.6 °F 15.7 °F 19.4 °F 74% 30.13 in 10.0 mi North 12.7 mph - N/A   Overcast
5:55 AM 26.6 °F 14.7 °F 17.6 °F 69% 30.13 in 10.0 mi North 15.0 mph - N/A   Mostly Cloudy
6:15 AM 26.6 °F 17.5 °F 15.8 °F 64% 30.14 in 10.0 mi North 9.2 mph - N/A   Scattered Clouds
6:35 AM 24.8 °F 15.3 °F 15.8 °F 69% 30.14 in 10.0 mi North 9.2 mph - N/A   Partly Cloudy
6:55 AM 24.8 °F 16.1 °F 17.6 °F 74% 30.14 in 10.0 mi North 8.1 mph - N/A   Clear
7:15 AM 24.8 °F 16.1 °F 17.6 °F 74% 30.14 in 10.0 mi North 8.1 mph - N/A   Clear
7:35 AM 26.6 °F 15.7 °F 15.8 °F 64% 30.15 in 10.0 mi North 12.7 mph - N/A   Partly Cloudy
7:55 AM 24.8 °F 14.6 °F 15.8 °F 69% 30.14 in 10.0 mi North 10.4 mph - N/A   Scattered Clouds
8:15 AM 24.8 °F 14.6 °F 15.8 °F 69% 30.14 in 10.0 mi North 10.4 mph - N/A   Mostly Cloudy
8:35 AM 26.6 °F 16.8 °F 17.6 °F 69% 30.15 in 10.0 mi North 10.4 mph - N/A   Mostly Cloudy
8:55 AM 26.6 °F 16.8 °F 17.6 °F 69% 30.14 in 10.0 mi North 10.4 mph - N/A   Overcast
9:15 AM 26.6 °F 18.2 °F 17.6 °F 69% 30.15 in 10.0 mi NNW 8.1 mph - N/A   Overcast
9:35 AM 26.6 °F 18.2 °F 17.6 °F 69% 30.14 in 10.0 mi North 8.1 mph - N/A   Overcast
9:55 AM 28.4 °F 19.7 °F 15.8 °F 59% 30.14 in 10.0 mi North 9.2 mph - N/A   Mostly Cloudy
10:15 AM 28.4 °F 24.6 °F 15.8 °F 59% 30.14 in 10.0 mi Variable 3.5 mph - N/A   Scattered Clouds
10:35 AM 28.4 °F 19.7 °F 15.8 °F 59% 30.14 in 10.0 mi NNW 9.2 mph - N/A   Clear
10:55 AM 30.2 °F 20.8 °F 14.0 °F 51% 30.13 in 10.0 mi NNW 11.5 mph - N/A   Clear
11:15 AM 30.2 °F 21.9 °F 12.2 °F 47% 30.12 in 10.0 mi NW 9.2 mph - N/A   Clear
11:35 AM 30.2 °F 20.8 °F 10.4 °F 44% 30.11 in 10.0 mi North 11.5 mph - N/A   Clear
11:55 AM 32.0 °F 23.0 °F 10.4 °F 41% 30.10 in 10.0 mi North 11.5 mph - N/A   Clear
12:15 PM 32.0 °F 23.0 °F 12.2 °F 44% 30.09 in 10.0 mi NNE 11.5 mph - N/A   Clear
12:35 PM 33.8 °F 26.4 °F 10.4 °F 38% 30.07 in 10.0 mi North 9.2 mph - N/A   Clear
12:55 PM 33.8 °F 27.7 °F 12.2 °F 41% 30.05 in 10.0 mi North 6.9 mph - N/A   Clear
1:15 PM 33.8 °F 27.0 °F 12.2 °F 41% 30.03 in 10.0 mi NW 8.1 mph - N/A   Clear
1:35 PM 33.8 °F 25.8 °F 8.6 °F 35% 30.03 in 10.0 mi NNW 10.4 mph - N/A   Clear
1:55 PM 33.8 °F 25.3 °F 10.4 °F 38% 30.02 in 10.0 mi NNW 11.5 mph - N/A   Clear
2:15 PM 33.8 °F 25.3 °F 8.6 °F 35% 30.02 in 10.0 mi NNW 11.5 mph - N/A   Clear
2:35 PM 33.8 °F 27.0 °F 8.6 °F 35% 30.02 in 10.0 mi NW 8.1 mph - N/A   Clear
2:55 PM 33.8 °F 24.8 °F 6.8 °F 32% 30.02 in 10.0 mi NNW 12.7 mph - N/A   Clear
3:15 PM 33.8 °F 27.0 °F 6.8 °F 32% 30.02 in 10.0 mi NW 8.1 mph - N/A   Clear
3:35 PM 33.8 °F 27.0 °F 6.8 °F 32% 30.01 in 10.0 mi NNW 8.1 mph - N/A   Clear
3:55 PM 33.8 °F 27.0 °F 6.8 °F 32% 30.01 in 10.0 mi NNW 8.1 mph - N/A   Clear
4:15 PM 33.8 °F 27.7 °F 6.8 °F 32% 30.01 in 10.0 mi North 6.9 mph - N/A   Clear
4:35 PM 33.8 °F 26.4 °F 6.8 °F 32% 30.00 in 10.0 mi North 9.2 mph - N/A   Clear
4:55 PM 33.8 °F 28.6 °F 6.8 °F 32% 30.00 in 10.0 mi North 5.8 mph - N/A   Clear
5:15 PM 32.0 °F 25.6 °F 6.8 °F 35% 30.00 in 10.0 mi NNW 6.9 mph - N/A   Clear
5:35 PM 30.2 °F 24.3 °F 8.6 °F 40% 30.00 in 10.0 mi North 5.8 mph - N/A   Clear
5:55 PM 30.2 °F 24.3 °F 6.8 °F 37% 30.00 in 10.0 mi NNW 5.8 mph - N/A   Clear
6:15 PM 28.4 °F 22.2 °F 6.8 °F 40% 30.01 in 10.0 mi NNW 5.8 mph - N/A   Clear
6:35 PM 28.4 °F - 8.6 °F 43% 30.01 in 10.0 mi Calm Calm - N/A   Clear
6:55 PM 28.4 °F 24.6 °F 8.6 °F 43% 30.00 in 10.0 mi North 3.5 mph - N/A   Clear
7:15 PM 26.6 °F - 8.6 °F 47% 30.01 in 10.0 mi Calm Calm - N/A   Clear
7:35 PM 26.6 °F - 8.6 °F 47% 30.01 in 10.0 mi Calm Calm - N/A   Clear
7:55 PM 26.6 °F - 8.6 °F 47% 30.02 in 10.0 mi Calm Calm - N/A   Clear
8:15 PM 26.6 °F - 8.6 °F 47% 30.02 in 10.0 mi Calm Calm - N/A   Clear
8:35 PM 26.6 °F - 8.6 °F 47% 30.01 in 10.0 mi Calm Calm - N/A   Clear
8:55 PM 24.8 °F - 8.6 °F 50% 30.02 in 10.0 mi Calm Calm - N/A   Clear
9:15 PM 24.8 °F - 8.6 °F 50% 30.02 in 10.0 mi Calm Calm - N/A   Clear
9:35 PM 24.8 °F - 8.6 °F 50% 30.02 in 10.0 mi Calm Calm - N/A   Clear
9:55 PM 24.8 °F - 8.6 °F 50% 30.03 in 10.0 mi Calm Calm - N/A   Clear
10:15 PM 24.8 °F - 8.6 °F 50% 30.02 in 10.0 mi Calm Calm - N/A   Clear
10:35 PM 21.2 °F - 10.4 °F 63% 30.02 in 10.0 mi Calm Calm - N/A   Clear
10:55 PM 21.2 °F - 10.4 °F 63% 30.02 in 10.0 mi Calm Calm - N/A   Clear
11:15 PM 21.2 °F - 10.4 °F 63% 30.02 in 10.0 mi Calm Calm - N/A   Clear
11:35 PM 19.4 °F 14.3 °F 10.4 °F 68% 30.02 in 10.0 mi SW 3.5 mph - N/A   Clear
11:55 PM 17.6 °F - 10.4 °F 73% 30.02 in 10.0 mi Calm Calm - N/A   Clear